Hannover, Germany

3:08 AM CET on December 14, 2017 (GMT +0100)
Hannover

Weather History for EDDV - March, 2017

Change the Weather History Date:

Monday, March 20, 2017

  Actual Average Record
Temperature  
Mean Temperature 52 °F -  
Max Temperature 53 °F 52 °F 68 °F (2014)
Min Temperature 50 °F 36 °F 24 °F (2009)
Degree Days  
Heating Degree Days 14    
Growing Degree Days 2 (Base 50)    
Moisture  
Dew Point 47 °F    
Average Humidity 85    
Maximum Humidity 94    
Minimum Humidity 72    
Precipitation  
Precipitation 0.00 in 0.06 in - ()
Sea Level Pressure  
Sea Level Pressure 29.67 in    
Wind  
Wind Speed 13 mph ()    
Max Wind Speed 17 mph    
Max Gust Speed 30 mph    
Visibility 5.4 miles    
Events Rain    
Averages and records for this station are not official NWS values.
T = Trace of Precipitation, MM = Missing Value Source: Averaged Metar Reports

Daily Weather History Graph

Daily Weather History Graph

Search for Another Location

Airport or City:

Trip Planner

Search our weather history database for the weather conditions in past years. The results will help you decide how hot, cold, wet, or windy it might be!

Date:

Astronomy

Mar. 20, 2017 Rise Set
Actual Time 6:23 AM CET 6:34 PM CET
Civil Twilight 5:49 AM CET 7:08 PM CET
Nautical Twilight 5:09 AM CET 7:49 PM CET
Astronomical Twilight 4:27 AM CET 8:31 PM CET
Moon 1:41 AM CET (3/20) 10:31 AM CET (3/20)
Length of Visible Light 13h 19m
Length of Day
12h 10m
Waning Gibbous, 52% of the Moon is Illuminated
Mar 20
Waning Gibbous
Mar 20
Last Quarter
Mar 28
New
Apr 3
First Quarter
Apr 11
Full

Hourly Weather History & Observations

Time (CET) Temp. Dew Point Humidity Pressure Visibility Wind Dir Wind Speed Gust Speed Precip Events Conditions
12:20 AM 50.0 °F 46.4 °F 87% 29.68 in 5.0 mi WSW 16.1 mph 29.9 mph N/A   Light Drizzle
12:50 AM 50.0 °F 46.4 °F 87% 29.68 in 5.0 mi WSW 13.8 mph - N/A   Light Drizzle
1:20 AM 50.0 °F 46.4 °F 87% 29.68 in 6.2 mi WSW 13.8 mph - N/A   Light Drizzle
1:50 AM 50.0 °F 46.4 °F 87% 29.68 in 6.2 mi WSW 13.8 mph - N/A   Overcast
2:20 AM 50.0 °F 48.2 °F 94% 29.68 in 5.6 mi WSW 11.5 mph - N/A   Light Drizzle
2:50 AM 50.0 °F 48.2 °F 94% 29.68 in 6.2 mi WSW 12.7 mph - N/A   Light Drizzle
3:20 AM 50.0 °F 48.2 °F 94% 29.68 in 6.2 mi WSW 11.5 mph - N/A   Light Drizzle
3:50 AM 50.0 °F 48.2 °F 94% 29.68 in 6.2 mi WSW 11.5 mph - N/A   Light Drizzle
4:20 AM 50.0 °F 48.2 °F 94% 29.68 in 2.8 mi WSW 12.7 mph - N/A   Light Drizzle
4:50 AM 50.0 °F 48.2 °F 94% 29.68 in 3.1 mi WSW 10.4 mph - N/A   Light Drizzle
5:20 AM 50.0 °F 46.4 °F 87% 29.68 in 6.2 mi WSW 15.0 mph - N/A   Mostly Cloudy
5:50 AM 50.0 °F 48.2 °F 94% 29.68 in 3.1 mi WSW 13.8 mph - N/A   Light Drizzle
6:20 AM 50.0 °F 48.2 °F 94% 29.68 in 2.5 mi WSW 15.0 mph - N/A   Light Drizzle
6:50 AM 50.0 °F 48.2 °F 94% 29.71 in 3.1 mi WSW 13.8 mph - N/A   Light Drizzle
7:20 AM 50.0 °F 48.2 °F 94% 29.71 in 2.2 mi WSW 12.7 mph - N/A   Light Drizzle
7:50 AM 50.0 °F 48.2 °F 94% 29.71 in 3.1 mi WSW 12.7 mph - N/A   Light Drizzle
8:20 AM 50.0 °F 48.2 °F 94% 29.71 in 3.1 mi WSW 16.1 mph - N/A   Light Drizzle
8:50 AM 50.0 °F 46.4 °F 87% 29.71 in 6.2 mi WSW 13.8 mph - N/A   Light Drizzle
9:20 AM 50.0 °F 46.4 °F 87% 29.71 in 6.2 mi WSW 13.8 mph - N/A   Light Drizzle
9:50 AM 50.0 °F 46.4 °F 87% 29.71 in 6.2 mi SW 15.0 mph - N/A Rain Light Rain
10:20 AM 50.0 °F 46.4 °F 87% 29.71 in 6.2 mi WSW 15.0 mph - N/A Rain Light Rain
10:50 AM 51.8 °F 46.4 °F 82% 29.71 in 6.2 mi WSW 16.1 mph - N/A   Overcast
11:20 AM 51.8 °F 46.4 °F 82% 29.71 in 6.2 mi WSW 15.0 mph - N/A   Overcast
11:50 AM 51.8 °F 46.4 °F 82% 29.71 in 6.2 mi WSW 15.0 mph - N/A Rain Light Rain
12:20 PM 53.6 °F 48.2 °F 82% 29.71 in 6.2 mi WSW 16.1 mph - N/A Rain Light Rain
12:50 PM 53.6 °F 48.2 °F 82% 29.71 in 6.2 mi WSW 17.3 mph - N/A Rain Light Rain
1:20 PM 51.8 °F 48.2 °F 88% 29.71 in 4.3 mi WSW 12.7 mph - N/A Rain Light Rain
1:50 PM 51.8 °F 48.2 °F 88% 29.68 in 6.2 mi SW 11.5 mph - N/A Rain Light Rain
2:20 PM 53.6 °F 48.2 °F 82% 29.68 in 6.2 mi SW 12.7 mph - N/A Rain Light Rain
2:50 PM 51.8 °F 50.0 °F 94% 29.68 in 2.8 mi SW 15.0 mph - N/A   Light Drizzle
3:20 PM 51.8 °F 50.0 °F 94% 29.65 in 3.7 mi SW 12.7 mph - N/A   Light Drizzle
3:50 PM 51.8 °F 50.0 °F 94% 29.65 in 6.2 mi SW 9.2 mph - N/A   Mostly Cloudy
4:20 PM 53.6 °F 48.2 °F 82% 29.65 in 6.2 mi SW 11.5 mph - N/A   Mostly Cloudy
4:50 PM 53.6 °F 48.2 °F 82% 29.65 in 6.2 mi SW 12.7 mph - N/A   Mostly Cloudy
5:20 PM 53.6 °F 46.4 °F 77% 29.62 in 6.2 mi SW 12.7 mph - N/A   Mostly Cloudy
5:50 PM 53.6 °F 46.4 °F 77% 29.62 in 6.2 mi SW 13.8 mph - N/A   Mostly Cloudy
6:20 PM 53.6 °F 44.6 °F 72% 29.62 in 6.2 mi SW 12.7 mph - N/A   Mostly Cloudy
6:50 PM 53.6 °F 46.4 °F 77% 29.62 in 6.2 mi SW 12.7 mph - N/A   Mostly Cloudy
7:20 PM 53.6 °F 44.6 °F 72% 29.62 in 6.2 mi SW 10.4 mph - N/A   Mostly Cloudy
7:50 PM 53.6 °F 44.6 °F 72% 29.62 in 6.2 mi SW 12.7 mph - N/A   Mostly Cloudy
8:20 PM 53.6 °F 44.6 °F 72% 29.62 in 6.2 mi WSW 15.0 mph - N/A   Mostly Cloudy
9:20 PM 51.8 °F 46.4 °F 82% 29.62 in 6.2 mi SW 13.8 mph - N/A Rain Light Rain
9:50 PM 51.8 °F 46.4 °F 82% 29.62 in 6.2 mi SW 13.8 mph - N/A Rain Light Rain
10:20 PM 51.8 °F 46.4 °F 82% 29.62 in 6.2 mi SW 12.7 mph - N/A Rain Light Rain
10:50 PM 51.8 °F 44.6 °F 76% 29.62 in 6.2 mi SW 12.7 mph - N/A Rain Light Rain
11:20 PM 51.8 °F 44.6 °F 76% 29.62 in 6.2 mi WSW 13.8 mph - N/A   Mostly Cloudy
11:50 PM 51.8 °F 44.6 °F 76% 29.62 in 6.2 mi SW 15.0 mph - N/A   Mostly Cloudy